Regional Weather Roundup
Issued by NWS

Home | Current Version | Previous Version | Graphics & Text | Print | Product List | Glossary On
Versions: 1 2 3 4 5 6 7 8 9 10 11 12 13 14 15 16 17 18 19 20 21 22 23 24 25 26 27 28 29 30 31 32 33 34 35 36 37 38 39 40 41 42 43 44 45 46 47 48 49 50
000
ASUS43 KFSD 251302
RWRSD

WEATHER ROUNDUP FOR SOUTH DAKOTA
NATIONAL WEATHER SERVICE SIOUX FALLS SD
800 AM CDT TUE APR 25 2017

NOTE: "FAIR" INDICATES FEW OR NO CLOUDS BELOW 12,000 FEET WITH NO
SIGNIFICANT WEATHER AND/OR OBSTRUCTIONS TO VISIBILITY.


SDZ001>005-009-010-012>017-251400-
NORTHWEST AND NORTH CENTRAL SOUTH DAKOTA

CITY           SKY/WX    TMP DP  RH WIND       PRES   REMARKS
BUFFALO          N/A     29  28  96 NE17      29.66R WCI  17
FAITH            N/A     30  30 100 NE16      29.73R WCI  19
MOBRIDGE       CLOUDY    34  26  72 N14       29.72R WCI  25
$$

SDZ012>016-024>037-041>051-057-063-072>074-251400-
SOUTHWEST AND SOUTH CENTRAL SOUTH DAKOTA

CITY           SKY/WX    TMP DP  RH WIND       PRES   REMARKS
RAPID CTY ARPT LGT SNOW  31  29  92 NE10      29.68R VSB 1   WCI  22
PIERRE         CLOUDY    35  30  82 N12       29.69R WCI  27
CUSTER         LGT SNOW  28  25  88 NE14      29.57R FOG     WCI  17
ELLSWORTH AFB  LGT SNOW  32  32 100 NE9       29.68  FOG     WCI  24
PHILIP         CLOUDY    33  31  92 NE13      29.71R WCI  24
PINE RIDGE     LGT RAIN  35  34  96 E12       29.62S FOG     WCI  27
SPEARFISH      SNOW      28  28 100 MISG      29.67R VSB<1/4
WINNER         CLOUDY    37  34  89 N14       29.66R
$$

SDZ004>011-016>023-039-040-251400-
NORTHEAST SOUTH DAKOTA

CITY           SKY/WX    TMP DP  RH WIND       PRES   REMARKS
ABERDEEN       CLOUDY    33  28  81 N21       29.69R WCI  21
WATERTOWN      CLOUDY    33  32  96 N15G29    29.59R WCI  23
BROOKINGS      CLOUDY    36  34  92 N15       29.59R
SISSETON         N/A     33  32  96 N23G35    29.64F WCI  21
$$

SDZ017-020-022-023-036>040-048>070-251400-
SOUTHEAST SOUTH DAKOTA

CITY           SKY/WX    TMP DP  RH WIND       PRES   REMARKS
SIOUX FALLS    CLOUDY    41  39  93 N12       29.59R
HURON          CLOUDY    34  33  96 N17G23    29.67R WCI  23
CHAMBERLAIN    CLOUDY    37  35  90 NW12G17   29.66R
MITCHELL       CLOUDY    37  34  89 N20G25    29.65R
YANKTON        CLOUDY    39  36  87 NW8       29.66R
$$

ABBREVIATIONS USED IN REMARKS
   TC - TEMPERATURE IN CELSIUS
  WCI - WIND CHILL INDEX
   HX - HEAT INDEX
  VSB - VISIBILITY





USA.gov is the U.S. government's official web portal to all federal, state and local government web resources and services.